Time,TemperatureF,DewpointF,PressureIn,WindDirection,WindDirectionDegrees,WindSpeedMPH,WindSpeedGustMPH,Humidity,HourlyPrecipIn,Conditions,Clouds,dailyrainin,SoftwareType,DateUTC
2013-05-15 00:06:00,61.3,53.0,29.96,West,278,0.0,0.0,73,0.00,,,0.00,weatherlink.com 1.10,2013-05-15 07:06:00,
2013-05-15 00:21:00,61.3,53.0,29.97,West,279,0.0,0.0,74,0.00,,,0.00,weatherlink.com 1.10,2013-05-15 07:21:00,
2013-05-15 00:36:00,61.3,53.0,29.97,West,279,0.0,1.0,75,0.00,,,0.00,weatherlink.com 1.10,2013-05-15 07:36:00,
2013-05-15 00:51:00,61.7,56.0,29.97,West,279,0.0,1.0,80,0.00,,,0.00,weatherlink.com 1.10,2013-05-15 07:51:00,
2013-05-15 01:06:00,61.5,56.0,29.96,WSW,238,0.0,1.0,82,0.00,,,0.00,weatherlink.com 1.10,2013-05-15 08:06:00,
2013-05-15 01:21:00,61.3,56.0,29.96,SSW,202,0.0,1.0,83,0.00,,,0.00,weatherlink.com 1.10,2013-05-15 08:21:00,
2013-05-15 01:36:00,61.1,56.0,29.96,SSW,201,0.0,1.0,83,0.00,,,0.00,weatherlink.com 1.10,2013-05-15 08:36:00,
2013-05-15 01:51:00,60.9,56.0,29.96,SSW,201,0.0,1.0,83,0.00,,,0.00,weatherlink.com 1.10,2013-05-15 08:51:00,
2013-05-15 02:06:00,60.5,56.0,29.95,SW,222,0.0,1.0,84,0.00,,,0.00,weatherlink.com 1.10,2013-05-15 09:06:00,
2013-05-15 02:21:00,60.5,56.0,29.95,SW,223,0.0,1.0,84,0.00,,,0.00,weatherlink.com 1.10,2013-05-15 09:21:00,
2013-05-15 02:36:00,60.6,56.0,29.96,SW,223,0.0,1.0,84,0.00,,,0.00,weatherlink.com 1.10,2013-05-15 09:36:00,
2013-05-15 02:51:00,60.8,56.0,29.95,SSE,158,1.0,3.0,83,0.00,,,0.00,weatherlink.com 1.10,2013-05-15 09:51:00,
2013-05-15 03:06:00,60.9,56.0,29.95,SSW,206,0.0,3.0,83,0.00,,,0.00,weatherlink.com 1.10,2013-05-15 10:06:00,
2013-05-15 03:21:00,61.1,56.0,29.96,South,178,1.0,3.0,82,0.00,,,0.00,weatherlink.com 1.10,2013-05-15 10:21:00,
2013-05-15 03:36:00,62.1,56.0,29.95,East,86,2.0,2.0,80,0.00,,,0.00,weatherlink.com 1.10,2013-05-15 10:36:00,
2013-05-15 03:51:00,62.6,56.0,29.96,SE,143,1.0,3.0,79,0.00,,,0.00,weatherlink.com 1.10,2013-05-15 10:51:00,
2013-05-15 04:21:00,63.0,56.0,29.96,ESE,123,1.0,2.0,78,0.00,,,0.00,weatherlink.com 1.10,2013-05-15 11:21:00,
2013-05-15 04:37:00,63.2,56.0,29.95,ESE,105,0.0,7.0,78,0.00,,,0.00,weatherlink.com 1.10,2013-05-15 11:37:00,
2013-05-15 05:37:00,63.1,55.0,29.96,ESE,122,2.0,8.0,76,0.00,,,0.00,weatherlink.com 1.10,2013-05-15 12:37:00,
2013-05-15 05:52:00,63.1,55.0,29.96,ESE,117,3.0,7.0,75,0.00,,,0.00,weatherlink.com 1.10,2013-05-15 12:52:00,
2013-05-15 06:07:00,63.3,55.0,29.96,ESE,117,3.0,6.0,75,0.00,,,0.00,weatherlink.com 1.10,2013-05-15 13:07:00,
2013-05-15 06:22:00,63.4,55.0,29.97,SSE,151,1.0,7.0,73,0.00,,,0.00,weatherlink.com 1.10,2013-05-15 13:22:00,
2013-05-15 06:52:00,63.6,55.0,29.98,SE,129,5.0,5.0,73,0.00,,,0.00,weatherlink.com 1.10,2013-05-15 13:52:00,
2013-05-15 07:07:00,63.9,55.0,29.98,East,83,3.0,7.0,72,0.00,,,0.00,weatherlink.com 1.10,2013-05-15 14:07:00,
2013-05-15 07:22:00,64.0,54.0,29.99,ESE,117,0.0,6.0,71,0.00,,,0.00,weatherlink.com 1.10,2013-05-15 14:22:00,
2013-05-15 07:37:00,64.3,55.0,29.99,ESE,104,3.0,4.0,71,0.00,,,0.00,weatherlink.com 1.10,2013-05-15 14:37:00,
2013-05-15 08:07:00,65.3,55.0,29.99,SE,146,1.0,9.0,69,0.00,,,0.00,weatherlink.com 1.10,2013-05-15 15:07:00,
2013-05-15 08:22:00,65.9,55.0,30.00,SSE,155,3.0,7.0,67,0.00,,,0.00,weatherlink.com 1.10,2013-05-15 15:22:00,
2013-05-15 08:52:00,66.9,56.0,30.00,SE,146,4.0,6.0,67,0.00,,,0.00,weatherlink.com 1.10,2013-05-15 15:52:00,
2013-05-15 09:22:00,66.7,55.0,30.00,WSW,245,3.0,9.0,67,0.00,,,0.00,weatherlink.com 1.10,2013-05-15 16:22:00,
2013-05-15 09:52:00,67.5,56.0,30.01,WSW,240,1.0,9.0,66,0.00,,,0.00,weatherlink.com 1.10,2013-05-15 16:52:00,
2013-05-15 10:22:00,67.8,56.0,30.01,SSE,148,1.0,8.0,66,0.00,,,0.00,weatherlink.com 1.10,2013-05-15 17:22:00,
2013-05-15 10:37:00,69.3,56.0,30.01,SSE,168,3.0,9.0,62,0.00,,,0.00,weatherlink.com 1.10,2013-05-15 17:37:00,
2013-05-15 10:52:00,69.2,55.0,30.01,WSW,245,2.0,8.0,61,0.00,,,0.00,weatherlink.com 1.10,2013-05-15 17:52:00,
2013-05-15 11:07:00,68.9,55.0,30.01,SSW,200,5.0,9.0,62,0.00,,,0.00,weatherlink.com 1.10,2013-05-15 18:07:00,
2013-05-15 11:22:00,69.0,55.0,30.01,SW,228,6.0,9.0,61,0.00,,,0.00,weatherlink.com 1.10,2013-05-15 18:22:00,
2013-05-15 11:37:00,69.8,56.0,30.01,SSW,213,5.0,9.0,61,0.00,,,0.00,weatherlink.com 1.10,2013-05-15 18:37:00,
2013-05-15 11:52:00,70.7,56.0,30.01,SW,228,5.0,10.0,59,0.00,,,0.00,weatherlink.com 1.10,2013-05-15 18:52:00,
2013-05-15 12:07:00,70.7,55.0,30.01,SW,233,1.0,8.0,58,0.00,,,0.00,weatherlink.com 1.10,2013-05-15 19:07:00,
2013-05-15 12:22:00,70.2,56.0,30.00,SW,235,2.0,10.0,60,0.00,,,0.00,weatherlink.com 1.10,2013-05-15 19:22:00,
2013-05-15 12:37:00,71.9,56.0,30.00,SSW,192,3.0,8.0,57,0.00,,,0.00,weatherlink.com 1.10,2013-05-15 19:37:00,
2013-05-15 12:52:00,71.5,56.0,29.99,SW,233,9.0,9.0,58,0.00,,,0.00,weatherlink.com 1.10,2013-05-15 19:52:00,
2013-05-15 13:07:00,72.2,56.0,29.99,SW,216,4.0,6.0,58,0.00,,,0.00,weatherlink.com 1.10,2013-05-15 20:07:00,
2013-05-15 13:22:00,71.5,57.0,29.98,West,262,1.0,8.0,60,0.00,,,0.00,weatherlink.com 1.10,2013-05-15 20:22:00,
2013-05-15 13:52:00,72.6,58.0,29.98,SSE,152,5.0,9.0,61,0.00,,,0.00,weatherlink.com 1.10,2013-05-15 20:52:00,
2013-05-15 14:07:00,72.5,58.0,29.97,SSW,207,4.0,7.0,60,0.00,,,0.00,weatherlink.com 1.10,2013-05-15 21:07:00,
2013-05-15 14:22:00,72.6,57.0,29.97,South,185,7.0,8.0,59,0.00,,,0.00,weatherlink.com 1.10,2013-05-15 21:22:00,
2013-05-15 14:37:00,72.3,58.0,29.96,SW,228,5.0,9.0,60,0.00,,,0.00,weatherlink.com 1.10,2013-05-15 21:37:00,
2013-05-15 14:52:00,72.3,57.0,29.96,SW,228,4.0,8.0,59,0.00,,,0.00,weatherlink.com 1.10,2013-05-15 21:52:00,
2013-05-15 15:07:00,72.4,57.0,29.96,West,270,6.0,8.0,59,0.00,,,0.00,weatherlink.com 1.10,2013-05-15 22:07:00,
2013-05-15 15:23:00,72.1,56.0,29.95,South,185,6.0,11.0,58,0.00,,,0.00,weatherlink.com 1.10,2013-05-15 22:23:00,
2013-05-15 15:53:00,71.9,56.0,29.95,SW,221,3.0,9.0,58,0.00,,,0.00,weatherlink.com 1.10,2013-05-15 22:53:00,
2013-05-15 16:08:00,71.8,57.0,29.94,SE,142,3.0,8.0,59,0.00,,,0.00,weatherlink.com 1.10,2013-05-15 23:08:00,
2013-05-15 16:38:00,71.6,56.0,29.94,SE,137,5.0,10.0,59,0.00,,,0.00,weatherlink.com 1.10,2013-05-15 23:38:00,
2013-05-15 16:53:00,71.8,56.0,29.94,SE,136,5.0,8.0,57,0.00,,,0.00,weatherlink.com 1.10,2013-05-15 23:53:00,
2013-05-15 17:08:00,71.3,56.0,29.93,WSW,249,2.0,9.0,58,0.00,,,0.00,weatherlink.com 1.10,2013-05-16 00:08:00,
2013-05-15 17:23:00,70.9,56.0,29.93,WSW,250,5.0,10.0,60,0.00,,,0.00,weatherlink.com 1.10,2013-05-16 00:23:00,
2013-05-15 17:38:00,70.4,56.0,29.93,SW,224,5.0,10.0,60,0.00,,,0.00,weatherlink.com 1.10,2013-05-16 00:38:00,
2013-05-15 18:08:00,69.9,56.0,29.92,SSE,158,3.0,9.0,62,0.00,,,0.00,weatherlink.com 1.10,2013-05-16 01:08:00,
2013-05-15 18:38:00,68.4,56.0,29.92,WSW,241,3.0,8.0,65,0.00,,,0.00,weatherlink.com 1.10,2013-05-16 01:38:00,
2013-05-15 18:53:00,68.1,57.0,29.92,WSW,238,2.0,8.0,68,0.00,,,0.00,weatherlink.com 1.10,2013-05-16 01:53:00,
2013-05-15 19:08:00,67.5,57.0,29.91,East,93,2.0,6.0,70,0.00,,,0.00,weatherlink.com 1.10,2013-05-16 02:08:00,
2013-05-15 19:23:00,66.6,57.0,29.92,SE,136,0.0,6.0,71,0.00,,,0.00,weatherlink.com 1.10,2013-05-16 02:23:00,
2013-05-15 19:38:00,65.9,57.0,29.92,ESE,103,4.0,5.0,73,0.00,,,0.00,weatherlink.com 1.10,2013-05-16 02:38:00,
2013-05-15 19:53:00,65.2,57.0,29.92,South,181,1.0,5.0,75,0.00,,,0.00,weatherlink.com 1.10,2013-05-16 02:53:00,
2013-05-15 20:38:00,65.0,57.0,29.93,SE,142,0.0,3.0,76,0.00,,,0.00,weatherlink.com 1.10,2013-05-16 03:38:00,
2013-05-15 20:53:00,64.9,58.0,29.93,ESE,123,1.0,2.0,77,0.00,,,0.00,weatherlink.com 1.10,2013-05-16 03:53:00,
2013-05-15 21:08:00,64.7,57.0,29.93,ESE,122,0.0,3.0,77,0.00,,,0.00,weatherlink.com 1.10,2013-05-16 04:08:00,
2013-05-15 21:23:00,64.5,57.0,29.94,SW,231,0.0,5.0,77,0.00,,,0.00,weatherlink.com 1.10,2013-05-16 04:23:00,
2013-05-15 21:38:00,64.1,57.0,29.94,SE,136,2.0,5.0,77,0.00,,,0.00,weatherlink.com 1.10,2013-05-16 04:38:00,
2013-05-15 21:53:00,63.8,57.0,29.94,SE,139,3.0,5.0,78,0.00,,,0.00,weatherlink.com 1.10,2013-05-16 04:53:00,
2013-05-15 22:08:00,63.2,57.0,29.94,SSW,199,2.0,6.0,79,0.00,,,0.00,weatherlink.com 1.10,2013-05-16 05:08:00,
2013-05-15 22:23:00,62.7,56.0,29.95,SE,142,3.0,6.0,80,0.00,,,0.00,weatherlink.com 1.10,2013-05-16 05:23:00,
2013-05-15 22:38:00,62.5,57.0,29.94,SW,231,2.0,4.0,81,0.00,,,0.00,weatherlink.com 1.10,2013-05-16 05:38:00,
2013-05-15 22:53:00,62.6,57.0,29.94,SSW,201,1.0,4.0,81,0.00,,,0.00,weatherlink.com 1.10,2013-05-16 05:53:00,
2013-05-15 23:08:00,62.6,56.0,29.94,SW,220,1.0,3.0,80,0.00,,,0.00,weatherlink.com 1.10,2013-05-16 06:08:00,
2013-05-15 23:23:00,62.4,57.0,29.94,WSW,237,1.0,4.0,81,0.00,,,0.00,weatherlink.com 1.10,2013-05-16 06:23:00,
2013-05-15 23:38:00,62.2,56.0,29.94,SW,222,1.0,3.0,81,0.00,,,0.00,weatherlink.com 1.10,2013-05-16 06:38:00,
2013-05-15 23:53:00,62.0,56.0,29.94,SW,214,2.0,5.0,82,0.00,,,0.00,weatherlink.com 1.10,2013-05-16 06:53:00,